Weather History for DeLand, FL

Change the Weather History Date:

Thursday, January 24, 2013

  Actual Average Record
Temperature  
Mean Temperature 58 °F -  
Max Temperature 73 °F 70 °F 73 °F (2013)
Min Temperature 42 °F 42 °F 41 °F (2014)
Degree Days  
Heating Degree Days 8    
Growing Degree Days 8 (Base 50)    
Moisture  
Dew Point 44 °F    
Average Humidity 66    
Maximum Humidity 88    
Minimum Humidity 38    
Precipitation  
Precipitation 0.00 in - - ()
Sea Level Pressure  
Sea Level Pressure 30.29 in    
Wind  
Wind Speed 2 mph (WNW)    
Max Wind Speed 14 mph    
Max Gust Speed 21 mph    
Visibility 8 miles    
Events      
Averages and records for this station are not official NWS values.
T = Trace of Precipitation, MM = Missing Value Source: NWS Daily Summary

Daily Weather History Graph

Daily Weather History Graph

Search for Another Location

Airport:

Trip Planner

Search our weather history database for the weather conditions in past years. The results will help you decide how hot, cold, wet, or windy it might be!

Date:

Astronomy

Jan. 24, 2013 Rise Set
Actual Time 7:17 AM EST 5:57 PM EST
Civil Twilight 6:52 AM EST 6:22 PM EST
Nautical Twilight 6:23 AM EST 6:51 PM EST
Astronomical Twilight 5:55 AM EST 7:19 PM EST
Moon 4:00 PM EST (1/24) 5:11 AM EST (1/24)
Length of Visible Light 11h 30m
Length of Day
10h 39m
Waxing Gibbous, 94% of the Moon is Illuminated
Jan 24
Waxing Gibbous
Jan 26
Full
Feb 3
Last Quarter
Feb 10
New
Feb 17
First Quarter

Hourly Weather History & Observations

Time (EST) Temp. Windchill Dew Point Humidity Pressure Visibility Wind Dir Wind Speed Gust Speed Precip Events Conditions
12:15 AM 46.4 °F - 39.2 °F 76% 30.31 in 8.0 mi Calm Calm - N/A   Clear
12:35 AM 46.4 °F - 39.2 °F 76% 30.31 in 9.0 mi Calm Calm - N/A   Clear
12:55 AM 44.6 °F - 39.2 °F 81% 30.30 in 10.0 mi Calm Calm - N/A   Clear
1:15 AM 44.6 °F - 39.2 °F 81% 30.30 in 8.0 mi Calm Calm - N/A   Clear
1:35 AM 42.8 °F - 39.2 °F 87% 30.30 in 9.0 mi Calm Calm - N/A   Clear
1:55 AM 42.8 °F - 39.2 °F 87% 30.30 in 10.0 mi Calm Calm - N/A   Clear
2:15 AM 42.8 °F - 39.2 °F 87% 30.30 in 9.0 mi Calm Calm - N/A   Clear
2:35 AM 44.6 °F - 39.2 °F 81% 30.30 in 8.0 mi Calm Calm - N/A   Clear
2:55 AM 44.6 °F 43.1 °F 39.2 °F 81% 30.30 in 9.0 mi West 3.5 mph - N/A   Clear
3:15 AM 42.8 °F 41.1 °F 39.2 °F 87% 30.31 in 8.0 mi WNW 3.5 mph - N/A   Clear
3:35 AM 44.6 °F - 39.2 °F 81% 30.31 in 8.0 mi Calm Calm - N/A   Clear
3:55 AM 46.4 °F - 42.8 °F 87% 30.30 in 8.0 mi Calm Calm - N/A   Clear
4:15 AM 44.6 °F - 39.2 °F 81% 30.30 in 9.0 mi Calm Calm - N/A   Clear
4:35 AM 44.6 °F - 39.2 °F 81% 30.30 in 8.0 mi Calm Calm - N/A   Clear
4:55 AM 46.4 °F - 41.0 °F 81% 30.29 in 8.0 mi Calm Calm - N/A   Clear
5:15 AM 44.6 °F - 39.2 °F 81% 30.29 in 8.0 mi Calm Calm - N/A   Clear
5:35 AM 44.6 °F - 39.2 °F 81% 30.29 in 8.0 mi Calm Calm - N/A   Clear
5:55 AM 42.8 °F - 39.2 °F 87% 30.30 in 8.0 mi Calm Calm - N/A   Clear
6:15 AM 42.8 °F - 39.2 °F 87% 30.30 in 9.0 mi Calm Calm - N/A   Clear
6:35 AM 42.8 °F - 39.2 °F 87% 30.30 in 9.0 mi Calm Calm - N/A   Clear
6:55 AM 42.8 °F - 39.2 °F 87% 30.30 in 9.0 mi Calm Calm - N/A   Clear
7:15 AM 42.8 °F - 39.2 °F 87% 30.30 in 8.0 mi Calm Calm - N/A   Clear
7:35 AM 44.6 °F - 39.2 °F 81% 30.31 in 8.0 mi Calm Calm - N/A   Clear
7:55 AM 44.6 °F - 39.2 °F 81% 30.31 in 8.0 mi Calm Calm - N/A   Clear
8:15 AM 48.2 °F - 42.8 °F 82% 30.33 in 8.0 mi Calm Calm - N/A   Clear
8:35 AM 51.8 °F - 42.8 °F 71% 30.33 in 8.0 mi WNW 4.6 mph - N/A   Clear
8:55 AM 53.6 °F - 42.8 °F 67% 30.33 in 9.0 mi West 5.8 mph - N/A   Clear
9:15 AM 55.4 °F - 42.8 °F 63% 30.34 in 8.0 mi West 4.6 mph - N/A   Clear
9:35 AM 57.2 °F - 44.6 °F 63% 30.34 in 7.0 mi Calm Calm - N/A   Clear
9:55 AM 60.8 °F - 42.8 °F 52% 30.35 in 10.0 mi WNW 6.9 mph - N/A   Clear
10:15 AM 62.6 °F - 44.6 °F 52% 30.34 in 9.0 mi West 5.8 mph - N/A   Clear
10:35 AM 64.4 °F - 44.6 °F 49% 30.35 in 8.0 mi West 5.8 mph - N/A   Clear
10:55 AM 64.4 °F - 44.6 °F 49% 30.35 in - WNW 9.2 mph - N/A   Clear
11:15 AM 66.2 °F - 44.6 °F 46% 30.34 in - WNW 9.2 mph 17.3 mph N/A   Clear
11:35 AM 66.2 °F - 44.6 °F 46% 30.33 in - WNW 11.5 mph - N/A   Clear
11:55 AM 68.0 °F - 44.6 °F 43% 30.32 in - WNW 11.5 mph 19.6 mph N/A   Clear
12:15 PM 69.8 °F - 44.6 °F 40% 30.31 in - NW 11.5 mph 18.4 mph N/A   Clear
12:35 PM 69.8 °F - 44.6 °F 40% 30.29 in - NW 13.8 mph - N/A   Clear
12:55 PM 69.8 °F - 44.6 °F 40% 30.29 in - WNW 12.7 mph 20.7 mph N/A   Clear
1:15 PM 69.8 °F - 46.4 °F 43% 30.27 in - West 10.4 mph - N/A   Clear
1:35 PM 71.6 °F - 46.4 °F 41% 30.26 in - NW 8.1 mph - N/A   Clear
1:55 PM 71.6 °F - 46.4 °F 41% 30.26 in - West 5.8 mph - N/A   Clear
2:15 PM 71.6 °F - 48.2 °F 43% 30.25 in - West 6.9 mph - N/A   Clear
2:35 PM 71.6 °F - 46.4 °F 41% 30.25 in - WNW 6.9 mph - N/A   Clear
2:55 PM 73.4 °F - 46.4 °F 38% 30.24 in - NW 9.2 mph - N/A   Clear
3:15 PM 73.4 °F - 46.4 °F 38% 30.24 in - West 6.9 mph - N/A   Clear
3:35 PM 73.4 °F - 46.4 °F 38% 30.24 in - West 5.8 mph - N/A   Clear
3:55 PM 71.6 °F - 46.4 °F 41% 30.24 in - NW 8.1 mph - N/A   Clear
4:15 PM 71.6 °F - 46.4 °F 41% 30.24 in - WNW 3.5 mph - N/A   Clear
4:35 PM 71.6 °F - 46.4 °F 41% 30.24 in - WNW 6.9 mph - N/A   Clear
4:55 PM 71.6 °F - 46.4 °F 41% 30.24 in - NW 5.8 mph - N/A   Clear
5:15 PM 69.8 °F - 48.2 °F 46% 30.24 in - NW 5.8 mph - N/A   Clear
5:35 PM 69.8 °F - 48.2 °F 46% 30.25 in - Calm Calm - N/A   Clear
5:55 PM 68.0 °F - 48.2 °F 49% 30.25 in 10.0 mi Calm Calm - N/A   Partly Cloudy
6:15 PM 64.4 °F - 50.0 °F 59% 30.25 in 9.0 mi Calm Calm - N/A   Partly Cloudy
6:35 PM 62.6 °F - 50.0 °F 63% 30.26 in 9.0 mi Calm Calm - N/A   Clear
6:55 PM 60.8 °F - 48.2 °F 63% 30.27 in 9.0 mi Calm Calm - N/A   Clear
7:15 PM 60.8 °F - 50.0 °F 68% 30.27 in 10.0 mi Calm Calm - N/A   Clear
7:35 PM 59.0 °F - 48.2 °F 67% 30.28 in 9.0 mi Calm Calm - N/A   Clear
7:55 PM 57.2 °F - 48.2 °F 72% 30.27 in 9.0 mi Calm Calm - N/A   Clear
8:15 PM 55.4 °F - 48.2 °F 77% 30.28 in 9.0 mi Calm Calm - N/A   Clear
8:35 PM 55.4 °F - 48.2 °F 77% 30.28 in 9.0 mi Calm Calm - N/A   Clear
8:55 PM 53.6 °F - 48.2 °F 82% 30.29 in 8.0 mi Calm Calm - N/A   Clear
9:15 PM 53.6 °F - 48.2 °F 82% 30.29 in 8.0 mi Calm Calm - N/A   Clear
9:35 PM 55.4 °F - 48.2 °F 77% 30.29 in 7.0 mi Calm Calm - N/A   Clear
9:55 PM 55.4 °F - 48.2 °F 77% 30.30 in 8.0 mi Calm Calm - N/A   Partly Cloudy
10:15 PM 53.6 °F - 48.2 °F 82% 30.30 in 7.0 mi Calm Calm - N/A   Partly Cloudy
10:35 PM 53.6 °F - 48.2 °F 82% 30.30 in 7.0 mi Calm Calm - N/A   Scattered Clouds
10:55 PM 57.2 °F - 50.0 °F 77% 30.30 in 8.0 mi WSW 4.6 mph - N/A   Scattered Clouds
11:15 PM 57.2 °F - 51.8 °F 82% 30.29 in 10.0 mi Calm Calm - N/A   Partly Cloudy
11:35 PM 55.4 °F - 51.8 °F 88% 30.30 in 8.0 mi Calm Calm - N/A   Clear
11:55 PM 55.4 °F - 50.0 °F 82% 30.30 in 9.0 mi Calm Calm - N/A   Clear